CPA820 VHHH-RJBB

Flight info

Callsign CPA820
Flight time 2h 48m
Altitude 39000
Route DALOL V631 ENVAR M750 MADOG Y53 NIXOV
Aircraft A35K/H-SDE2E3GHIJ3J4J5LM1ORWXY/LB1D1

Departure

Time 2026-05-05 20:00
Airport Hong Kong International Airport (VHHH)

Arrival

Time 2026-05-05 22:48
Airport Kansai International Airport (RJBB)
Time Latitude Longitude Altitude Speed Heading
2026-05-05 19:42 22.31143 113.92591 40 ft 0 kts 129°
2026-05-05 19:51 22.31156 113.92573 39 ft 4 kts 124°
2026-05-05 19:51 22.31171 113.92549 40 ft 4 kts 120°
2026-05-05 19:51 22.31185 113.92524 34 ft 4 kts 127°
2026-05-05 19:52 22.31194 113.92512 35 ft 1 kts 133°
2026-05-05 19:52 22.31196 113.92510 35 ft 0 kts 133°
2026-05-05 19:54 22.31183 113.92512 40 ft 5 kts 178°
2026-05-05 19:54 22.31113 113.92472 40 ft 17 kts 206°
2026-05-05 19:54 22.30983 113.92407 41 ft 22 kts 204°
2026-05-05 19:55 22.30843 113.92336 41 ft 23 kts 196°
2026-05-05 19:55 22.30709 113.92302 42 ft 20 kts 234°
2026-05-05 19:55 22.30661 113.92160 42 ft 21 kts 251°
2026-05-05 19:55 22.30610 113.92007 42 ft 23 kts 250°
2026-05-05 19:56 22.30555 113.91841 42 ft 24 kts 252°
2026-05-05 19:56 22.30497 113.91664 42 ft 26 kts 251°
2026-05-05 19:56 22.30437 113.91476 41 ft 27 kts 251°
2026-05-05 19:56 22.30373 113.91279 42 ft 29 kts 250°
2026-05-05 19:57 22.30306 113.91072 42 ft 30 kts 251°
2026-05-05 19:57 22.30238 113.90857 42 ft 31 kts 251°
2026-05-05 19:57 22.30164 113.90634 42 ft 32 kts 251°
2026-05-05 19:57 22.30092 113.90403 42 ft 33 kts 251°
2026-05-05 19:58 22.30014 113.90166 42 ft 34 kts 251°
2026-05-05 19:58 22.29935 113.89923 42 ft 35 kts 250°
2026-05-05 19:58 22.29820 113.89743 42 ft 26 kts 169°
2026-05-05 19:58 22.29661 113.89820 42 ft 21 kts 123°
2026-05-05 19:59 22.29671 113.89970 42 ft 28 kts 73°
2026-05-05 19:59 22.29824 113.90441 40 ft 107 kts 70°
2026-05-05 19:59 22.30159 113.91457 98 ft 176 kts 71°
2026-05-05 19:59 22.30626 113.92845 433 ft 216 kts 70°
2026-05-05 20:00 22.31217 113.94482 1085 ft 243 kts 69°
2026-05-05 20:00 22.31792 113.96216 2180 ft 241 kts 72°
2026-05-05 20:00 22.32312 113.97903 2992 ft 234 kts 74°
2026-05-05 20:00 22.32821 113.99586 3585 ft 238 kts 74°
2026-05-05 20:01 22.33345 114.01298 4175 ft 241 kts 73°
2026-05-05 20:01 22.33775 114.03061 4736 ft 245 kts 83°
2026-05-05 20:01 22.33715 114.04901 5273 ft 247 kts 105°
2026-05-05 20:01 22.33031 114.06589 5869 ft 246 kts 127°
2026-05-05 20:02 22.31831 114.07877 6439 ft 244 kts 149°
2026-05-05 20:02 22.30282 114.08601 6957 ft 244 kts 170°
2026-05-05 20:02 22.28596 114.08767 7496 ft 244 kts 182°
2026-05-05 20:02 22.26887 114.08754 8048 ft 247 kts 183°
2026-05-05 20:03 22.25160 114.08730 8605 ft 250 kts 183°
2026-05-05 20:03 22.23396 114.08714 9016 ft 260 kts 184°
2026-05-05 20:03 22.21528 114.08683 9262 ft 277 kts 184°
2026-05-05 20:03 22.19561 114.08652 9652 ft 287 kts 184°
2026-05-05 20:04 22.17544 114.08805 10143 ft 297 kts 171°
2026-05-05 20:04 22.15643 114.09822 10359 ft 320 kts 141°
2026-05-05 20:04 22.14269 114.11790 10558 ft 339 kts 119°
2026-05-05 20:04 22.13228 114.14136 10774 ft 354 kts 116°
2026-05-05 20:05 22.12161 114.16587 10979 ft 367 kts 117°
2026-05-05 20:05 22.11035 114.19081 11350 ft 373 kts 118°
2026-05-05 20:05 22.09871 114.21598 11796 ft 377 kts 118°
2026-05-05 20:05 22.08679 114.24123 12250 ft 380 kts 120°
2026-05-05 20:06 22.07172 114.26452 12679 ft 379 kts 137°
2026-05-05 20:06 22.05171 114.28277 13158 ft 377 kts 147°
2026-05-05 20:06 22.03045 114.29948 13601 ft 380 kts 148°
2026-05-05 20:06 22.00893 114.31620 14002 ft 383 kts 147°
2026-05-05 20:07 21.98728 114.33309 14378 ft 386 kts 147°
2026-05-05 20:07 21.96545 114.35020 14756 ft 389 kts 147°
2026-05-05 20:07 21.94353 114.36746 15137 ft 392 kts 147°
2026-05-05 20:07 21.92143 114.38485 15526 ft 395 kts 147°
2026-05-05 20:08 21.89913 114.40237 15903 ft 398 kts 147°
2026-05-05 20:08 21.87676 114.42011 16267 ft 402 kts 145°
2026-05-05 20:08 21.85638 114.44097 16612 ft 409 kts 130°
2026-05-05 20:08 21.84195 114.46747 17004 ft 414 kts 112°
2026-05-05 20:09 21.83315 114.49704 17396 ft 416 kts 106°
2026-05-05 20:09 21.82556 114.52724 17776 ft 419 kts 105°
2026-05-05 20:09 21.81798 114.55760 18173 ft 421 kts 105°
2026-05-05 20:09 21.81025 114.58814 18499 ft 424 kts 105°
2026-05-05 20:10 21.80241 114.61880 18822 ft 426 kts 105°
2026-05-05 20:10 21.79447 114.64966 19143 ft 429 kts 105°
2026-05-05 20:10 21.78645 114.68069 19458 ft 432 kts 105°
2026-05-05 20:10 21.77838 114.71189 19792 ft 434 kts 105°
2026-05-05 20:11 21.77025 114.74323 20101 ft 436 kts 105°
2026-05-05 20:11 21.76207 114.77475 20414 ft 439 kts 105°
2026-05-05 20:11 21.75395 114.80601 20721 ft 441 kts 105°
2026-05-05 20:11 21.74639 114.83805 21021 ft 443 kts 101°
2026-05-05 20:12 21.74291 114.87103 21323 ft 445 kts 93°
2026-05-05 20:12 21.74182 114.90441 21619 ft 447 kts 90°
2026-05-05 20:12 21.74188 114.93796 21929 ft 450 kts 88°
2026-05-05 20:12 21.74238 114.97168 22223 ft 452 kts 88°
2026-05-05 20:13 21.74292 115.00555 22534 ft 454 kts 88°
2026-05-05 20:13 21.74331 115.03962 22811 ft 457 kts 88°
2026-05-05 20:13 21.74355 115.07385 23096 ft 459 kts 89°
2026-05-05 20:13 21.74364 115.10828 23389 ft 461 kts 89°
2026-05-05 20:14 21.74363 115.14286 23637 ft 464 kts 89°
2026-05-05 20:14 21.74358 115.17762 23884 ft 466 kts 89°
2026-05-05 20:14 21.74351 115.21249 24116 ft 467 kts 89°
2026-05-05 20:14 21.74343 115.24755 24359 ft 469 kts 89°
2026-05-05 20:15 21.74335 115.28268 24594 ft 471 kts 89°
2026-05-05 20:15 21.74327 115.31794 24835 ft 473 kts 89°
2026-05-05 20:15 21.74318 115.35335 25062 ft 474 kts 89°
2026-05-05 20:15 21.74308 115.38890 25286 ft 476 kts 89°
2026-05-05 20:16 21.74298 115.42455 25529 ft 478 kts 89°
2026-05-05 20:16 21.74288 115.46040 25752 ft 480 kts 89°
2026-05-05 20:16 21.74277 115.49634 25982 ft 482 kts 89°
2026-05-05 20:16 21.74265 115.53245 26218 ft 483 kts 89°
2026-05-05 20:17 21.74252 115.56870 26459 ft 485 kts 89°
2026-05-05 20:17 21.74238 115.60502 26694 ft 487 kts 89°
2026-05-05 20:17 21.74225 115.64150 26926 ft 489 kts 89°
2026-05-05 20:17 21.74211 115.67813 27157 ft 491 kts 89°
2026-05-05 20:18 21.74196 115.71489 27401 ft 492 kts 89°
2026-05-05 20:18 21.74181 115.75174 27636 ft 494 kts 89°
2026-05-05 20:18 21.74164 115.78878 27878 ft 496 kts 89°
2026-05-05 20:18 21.74143 115.82591 28115 ft 498 kts 88°
2026-05-05 20:19 21.74124 115.86326 28361 ft 500 kts 88°
2026-05-05 20:19 21.74106 115.90066 28608 ft 501 kts 88°
2026-05-05 20:19 21.74087 115.93826 28870 ft 503 kts 88°
2026-05-05 20:19 21.74067 115.97599 29091 ft 505 kts 88°
2026-05-05 20:20 21.74045 116.01385 29341 ft 507 kts 88°
2026-05-05 20:20 21.74022 116.05186 29595 ft 509 kts 88°
2026-05-05 20:20 21.73999 116.09001 29837 ft 511 kts 88°
2026-05-05 20:20 21.73974 116.12830 30089 ft 513 kts 88°
2026-05-05 20:21 21.73969 116.16677 30280 ft 515 kts 86°
2026-05-05 20:21 21.74311 116.20514 30477 ft 514 kts 77°
2026-05-05 20:21 21.75193 116.24229 30681 ft 512 kts 67°
2026-05-05 20:21 21.76472 116.27805 30891 ft 513 kts 63°
2026-05-05 20:22 21.77926 116.31309 31095 ft 514 kts 61°
2026-05-05 20:22 21.79471 116.34784 31307 ft 516 kts 60°
2026-05-05 20:22 21.81032 116.38215 31497 ft 518 kts 60°
2026-05-05 20:22 21.82623 116.41710 31713 ft 521 kts 60°
2026-05-05 20:23 21.84207 116.45223 31903 ft 523 kts 60°
2026-05-05 20:23 21.85785 116.48765 32091 ft 526 kts 60°
2026-05-05 20:23 21.87361 116.52331 32282 ft 528 kts 60°
2026-05-05 20:23 21.88935 116.55916 32477 ft 531 kts 61°
2026-05-05 20:24 21.90512 116.59518 32645 ft 533 kts 61°
2026-05-05 20:24 21.92096 116.63142 32835 ft 536 kts 61°
2026-05-05 20:24 21.93685 116.66780 33019 ft 538 kts 61°
2026-05-05 20:24 21.95282 116.70437 33180 ft 540 kts 61°
2026-05-05 20:25 21.96885 116.74109 33355 ft 543 kts 60°
2026-05-05 20:25 21.98492 116.77792 33533 ft 545 kts 60°
2026-05-05 20:25 22.00107 116.81494 33740 ft 546 kts 60°
2026-05-05 20:25 22.01720 116.85197 34000 ft 546 kts 60°
2026-05-05 20:26 22.03334 116.88903 34258 ft 546 kts 60°
2026-05-05 20:26 22.04941 116.92601 34580 ft 544 kts 60°
2026-05-05 20:26 22.06546 116.96294 34900 ft 542 kts 60°
2026-05-05 20:26 22.08143 116.99972 35219 ft 541 kts 60°
2026-05-05 20:27 22.09736 117.03641 35531 ft 540 kts 60°
2026-05-05 20:27 22.11326 117.07304 35831 ft 539 kts 60°
2026-05-05 20:27 22.12912 117.10963 36145 ft 538 kts 60°
2026-05-05 20:27 22.14494 117.14613 36444 ft 537 kts 60°
2026-05-05 20:28 22.16074 117.18262 36745 ft 536 kts 60°
2026-05-05 20:28 22.17648 117.21900 37037 ft 535 kts 60°
2026-05-05 20:28 22.19221 117.25539 37349 ft 534 kts 60°
2026-05-05 20:28 22.20790 117.29172 37650 ft 533 kts 60°
2026-05-05 20:29 22.22352 117.32790 37950 ft 532 kts 60°
2026-05-05 20:29 22.23386 117.35187 38137 ft 531 kts 60°
2026-05-05 20:29 22.24945 117.38803 38416 ft 530 kts 60°
2026-05-05 20:29 22.26499 117.42409 38688 ft 529 kts 60°
2026-05-05 20:30 22.28050 117.46012 38887 ft 529 kts 60°
2026-05-05 20:30 22.31661 117.54408 38959 ft 531 kts 60°
2026-05-05 20:31 22.34266 117.60473 38959 ft 532 kts 60°
2026-05-05 20:31 22.37374 117.67723 38948 ft 532 kts 60°
2026-05-05 20:32 22.40484 117.74988 38966 ft 533 kts 60°
2026-05-05 20:32 22.43593 117.82261 38956 ft 533 kts 60°
2026-05-05 20:33 22.46700 117.89538 38959 ft 534 kts 60°
2026-05-05 20:33 22.49787 117.96781 38960 ft 534 kts 60°
2026-05-05 20:34 22.52891 118.04077 38959 ft 535 kts 60°
2026-05-05 20:34 22.55998 118.11388 38955 ft 535 kts 60°
2026-05-05 20:35 22.59103 118.18706 38959 ft 535 kts 60°
2026-05-05 20:35 22.62210 118.26040 38956 ft 536 kts 61°
2026-05-05 20:36 22.65314 118.33379 38959 ft 536 kts 61°
2026-05-05 20:36 22.68416 118.40724 38961 ft 537 kts 61°
2026-05-05 20:37 22.71518 118.48080 38958 ft 537 kts 61°
2026-05-05 20:37 22.74619 118.55443 38957 ft 537 kts 61°
2026-05-05 20:38 22.77718 118.62815 38959 ft 538 kts 61°
2026-05-05 20:38 22.80819 118.70202 38957 ft 538 kts 61°
2026-05-05 20:39 22.83916 118.77592 38955 ft 539 kts 61°
2026-05-05 20:39 22.87013 118.84993 38955 ft 539 kts 61°
2026-05-05 20:40 22.90108 118.92401 38964 ft 540 kts 61°
2026-05-05 20:40 22.93202 118.99818 38959 ft 540 kts 61°
2026-05-05 20:41 22.96297 119.07250 38956 ft 540 kts 61°
2026-05-05 20:41 22.99388 119.14683 38957 ft 541 kts 61°
2026-05-05 20:42 23.02462 119.22086 38957 ft 541 kts 61°
2026-05-05 20:42 23.05553 119.29542 38957 ft 541 kts 62°
2026-05-05 20:43 23.08641 119.37004 38960 ft 542 kts 62°
2026-05-05 20:43 23.11726 119.44470 38962 ft 542 kts 62°
2026-05-05 20:44 23.14815 119.51958 38961 ft 543 kts 62°
2026-05-05 20:44 23.18018 119.59373 38964 ft 540 kts 55°
2026-05-05 20:45 23.23747 119.69904 38962 ft 539 kts 54°
2026-05-05 20:45 23.27652 119.76865 38966 ft 539 kts 54°
2026-05-05 20:46 23.31556 119.83842 38970 ft 540 kts 54°
2026-05-05 20:46 23.35489 119.90736 38965 ft 537 kts 49°
2026-05-05 20:47 23.40428 119.96695 38964 ft 528 kts 38°
2026-05-05 20:47 23.45733 120.02227 38965 ft 528 kts 37°
2026-05-05 20:48 23.51098 120.07696 38968 ft 528 kts 37°
2026-05-05 20:48 23.56456 120.13183 38974 ft 529 kts 37°
2026-05-05 20:49 23.61807 120.18700 38971 ft 530 kts 37°
2026-05-05 20:49 23.67155 120.24231 38972 ft 530 kts 37°
2026-05-05 20:50 23.72509 120.29775 38977 ft 531 kts 37°
2026-05-05 20:50 23.77864 120.35326 38977 ft 531 kts 37°
2026-05-05 20:51 23.83222 120.40885 38983 ft 531 kts 37°
2026-05-05 20:51 23.88581 120.46453 38976 ft 532 kts 37°
2026-05-05 20:52 23.93934 120.52044 38992 ft 532 kts 38°
2026-05-05 20:52 23.99263 120.57668 38995 ft 533 kts 38°
2026-05-05 20:53 24.04591 120.63301 38999 ft 533 kts 38°
2026-05-05 20:53 24.09925 120.68941 39005 ft 533 kts 38°
2026-05-05 20:54 24.15257 120.74584 39006 ft 533 kts 38°
2026-05-05 20:54 24.20591 120.80237 39010 ft 534 kts 38°
2026-05-05 20:55 24.25928 120.85899 39007 ft 534 kts 38°
2026-05-05 20:55 24.31260 120.91561 39018 ft 534 kts 38°
2026-05-05 20:56 24.36601 120.97231 39029 ft 534 kts 38°
2026-05-05 20:56 24.41833 121.03051 39032 ft 539 kts 45°
2026-05-05 20:57 24.46609 121.09428 39042 ft 542 kts 46°
2026-05-05 20:57 24.51297 121.15901 39034 ft 541 kts 46°
2026-05-05 20:58 24.55977 121.22395 39036 ft 542 kts 46°
2026-05-05 20:58 24.60677 121.28894 39021 ft 543 kts 46°
2026-05-05 20:59 24.65338 121.35353 39005 ft 542 kts 46°
2026-05-05 20:59 24.70027 121.41853 39016 ft 543 kts 47°
2026-05-05 21:00 24.74721 121.48367 38987 ft 544 kts 47°
2026-05-05 21:00 24.79421 121.54898 38977 ft 544 kts 47°
2026-05-05 21:01 24.84114 121.61432 38976 ft 544 kts 47°
2026-05-05 21:01 24.88805 121.67972 38979 ft 543 kts 47°
2026-05-05 21:02 24.93585 121.74403 38976 ft 542 kts 44°
2026-05-05 21:02 24.98564 121.80632 38977 ft 542 kts 44°
2026-05-05 21:03 25.03546 121.86867 38979 ft 542 kts 44°
2026-05-05 21:03 25.08496 121.93150 38976 ft 543 kts 45°
2026-05-05 21:04 25.13440 121.99470 38979 ft 544 kts 45°
2026-05-05 21:04 25.18365 122.05828 38981 ft 545 kts 46°
2026-05-05 21:05 25.23272 122.12214 38975 ft 546 kts 46°
2026-05-05 21:05 25.28188 122.18613 38973 ft 546 kts 46°
2026-05-05 21:06 25.33111 122.25020 38973 ft 547 kts 46°
2026-05-05 21:06 25.38033 122.31431 38974 ft 547 kts 46°
2026-05-05 21:07 25.42951 122.37844 38974 ft 547 kts 46°
2026-05-05 21:07 25.47865 122.44263 38976 ft 547 kts 46°
2026-05-05 21:08 25.52749 122.50650 38975 ft 546 kts 46°
2026-05-05 21:08 25.57677 122.57053 38977 ft 546 kts 46°
2026-05-05 21:09 25.62612 122.63460 38976 ft 547 kts 46°
2026-05-05 21:09 25.67544 122.69878 38975 ft 547 kts 47°
2026-05-05 21:10 25.72475 122.76311 38971 ft 547 kts 47°
2026-05-05 21:10 25.77406 122.82754 38974 ft 548 kts 47°
2026-05-05 21:11 25.82340 122.89211 38970 ft 548 kts 47°
2026-05-05 21:11 25.87276 122.95678 38970 ft 549 kts 47°
2026-05-05 21:12 25.92207 123.02152 38971 ft 549 kts 47°
2026-05-05 21:12 25.97146 123.08648 38976 ft 550 kts 47°
2026-05-05 21:13 26.02087 123.15152 38977 ft 551 kts 47°
2026-05-05 21:13 26.07033 123.21672 38980 ft 552 kts 48°
2026-05-05 21:14 26.11982 123.28206 38981 ft 553 kts 48°
2026-05-05 21:14 26.16932 123.34753 38984 ft 553 kts 48°
2026-05-05 21:15 26.21051 123.40207 38987 ft 554 kts 48°
2026-05-05 21:15 26.26005 123.46777 38988 ft 554 kts 48°
2026-05-05 21:16 26.30963 123.53360 38997 ft 555 kts 49°
2026-05-05 21:16 26.35924 123.59958 38999 ft 556 kts 49°
2026-05-05 21:17 26.40889 123.66570 38997 ft 556 kts 49°
2026-05-05 21:17 26.45856 123.73195 38998 ft 557 kts 49°
2026-05-05 21:18 26.50827 123.79834 39002 ft 557 kts 49°
2026-05-05 21:18 26.55799 123.86486 39009 ft 558 kts 49°
2026-05-05 21:19 26.60772 123.93149 39015 ft 559 kts 49°
2026-05-05 21:19 26.65719 123.99787 39003 ft 560 kts 49°
2026-05-05 21:20 26.70707 124.06474 39025 ft 560 kts 49°
2026-05-05 21:20 26.75709 124.13163 39010 ft 561 kts 49°
2026-05-05 21:21 26.80715 124.19869 39016 ft 562 kts 49°
2026-05-05 21:21 26.85727 124.26598 39014 ft 563 kts 50°
2026-05-05 21:22 26.90741 124.33342 39018 ft 563 kts 50°
2026-05-05 21:22 26.95755 124.40098 39017 ft 564 kts 50°
2026-05-05 21:23 27.00777 124.46870 39022 ft 565 kts 50°
2026-05-05 21:23 27.05804 124.53656 39023 ft 566 kts 50°
2026-05-05 21:24 27.10834 124.60459 39024 ft 567 kts 50°
2026-05-05 21:24 27.15866 124.67275 39023 ft 567 kts 50°
2026-05-05 21:25 27.20905 124.74110 39027 ft 568 kts 50°
2026-05-05 21:25 27.25914 124.80915 39026 ft 569 kts 50°
2026-05-05 21:26 27.30957 124.87776 39032 ft 569 kts 50°
2026-05-05 21:26 27.36004 124.94655 39029 ft 570 kts 50°
2026-05-05 21:27 27.41046 125.01540 39032 ft 570 kts 50°
2026-05-05 21:27 27.46122 125.08407 39033 ft 571 kts 50°
2026-05-05 21:28 27.51220 125.15263 39035 ft 571 kts 50°
2026-05-05 21:28 27.56316 125.22140 39035 ft 572 kts 50°
2026-05-05 21:29 27.61405 125.29031 39036 ft 572 kts 50°
2026-05-05 21:29 27.66495 125.35941 39038 ft 573 kts 50°
2026-05-05 21:30 27.71586 125.42861 39035 ft 573 kts 50°
2026-05-05 21:30 27.76682 125.49798 39042 ft 574 kts 50°
2026-05-05 21:31 27.81777 125.56745 39041 ft 574 kts 50°
2026-05-05 21:31 27.86873 125.63704 39038 ft 575 kts 50°
2026-05-05 21:32 27.91969 125.70675 39041 ft 575 kts 50°
2026-05-05 21:32 27.97033 125.77613 39047 ft 576 kts 50°
2026-05-05 21:33 28.02125 125.84602 39047 ft 576 kts 50°
2026-05-05 21:33 28.07219 125.91604 39050 ft 576 kts 50°
2026-05-05 21:34 28.12308 125.98612 39051 ft 576 kts 50°
2026-05-05 21:34 28.17395 126.05626 39052 ft 576 kts 50°
2026-05-05 21:35 28.22478 126.12650 39053 ft 576 kts 50°
2026-05-05 21:35 28.27555 126.19675 39049 ft 576 kts 50°
2026-05-05 21:36 28.32635 126.26716 39047 ft 576 kts 50°
2026-05-05 21:36 28.37717 126.33772 39056 ft 577 kts 50°
2026-05-05 21:37 28.42798 126.40838 39048 ft 577 kts 50°
2026-05-05 21:37 28.47876 126.47913 39062 ft 578 kts 50°
2026-05-05 21:38 28.52954 126.54999 39052 ft 578 kts 50°
2026-05-05 21:38 28.58033 126.62098 39056 ft 579 kts 50°
2026-05-05 21:39 28.63109 126.69206 39067 ft 579 kts 50°
2026-05-05 21:39 28.68191 126.76333 39061 ft 580 kts 50°
2026-05-05 21:40 28.73272 126.83472 39059 ft 580 kts 50°
2026-05-05 21:40 28.78324 126.90583 39063 ft 581 kts 50°
2026-05-05 21:41 28.83407 126.97748 39064 ft 581 kts 50°
2026-05-05 21:41 28.88490 127.04926 39068 ft 582 kts 50°
2026-05-05 21:42 28.93575 127.12119 39064 ft 582 kts 50°
2026-05-05 21:42 28.98655 127.19319 39067 ft 582 kts 50°
2026-05-05 21:43 29.03734 127.26529 39067 ft 583 kts 50°
2026-05-05 21:43 29.08815 127.33753 39066 ft 583 kts 50°
2026-05-05 21:44 29.13897 127.40994 39068 ft 584 kts 50°
2026-05-05 21:44 29.18975 127.48240 39066 ft 584 kts 50°
2026-05-05 21:45 29.24053 127.55500 39069 ft 584 kts 50°
2026-05-05 21:45 29.29130 127.62770 39070 ft 584 kts 50°
2026-05-05 21:46 29.34204 127.70049 39067 ft 585 kts 50°
2026-05-05 21:46 29.39284 127.77349 39070 ft 585 kts 50°
2026-05-05 21:47 29.44364 127.84664 39070 ft 586 kts 50°
2026-05-05 21:47 29.49440 127.91986 39071 ft 586 kts 50°
2026-05-05 21:48 29.54517 127.99326 39075 ft 587 kts 50°
2026-05-05 21:48 29.59567 128.06630 39074 ft 588 kts 50°
2026-05-05 21:49 29.64652 128.13989 39073 ft 588 kts 50°
2026-05-05 21:49 29.69742 128.21372 39076 ft 589 kts 50°
2026-05-05 21:50 29.74827 128.28765 39074 ft 589 kts 50°
2026-05-05 21:50 29.79908 128.36165 39074 ft 589 kts 50°
2026-05-05 21:51 29.84988 128.43578 39081 ft 589 kts 50°
2026-05-05 21:51 29.90061 128.50993 39079 ft 589 kts 50°
2026-05-05 21:52 29.97647 128.62106 39078 ft 587 kts 50°
2026-05-05 21:53 30.02691 128.69510 39080 ft 587 kts 50°
2026-05-05 21:53 30.07730 128.76909 39084 ft 586 kts 50°
2026-05-05 21:54 30.12769 128.84309 39086 ft 586 kts 50°
2026-05-05 21:54 30.17786 128.91730 39085 ft 586 kts 50°
2026-05-05 21:55 30.22797 128.99166 39082 ft 586 kts 50°
2026-05-05 21:55 30.27782 129.06554 39084 ft 587 kts 48°
2026-05-05 21:56 30.32890 129.13924 39083 ft 587 kts 48°
2026-05-05 21:56 30.37984 129.21346 39084 ft 589 kts 48°
2026-05-05 21:57 30.43030 129.28831 39082 ft 589 kts 49°
2026-05-05 21:57 30.48029 129.36369 39085 ft 590 kts 51°
2026-05-05 21:58 30.52966 129.43974 39086 ft 590 kts 50°
2026-05-05 21:58 30.57931 129.51553 39086 ft 590 kts 50°
2026-05-05 21:59 30.62922 129.59091 39082 ft 588 kts 50°
2026-05-05 21:59 30.67930 129.66602 39086 ft 588 kts 49°
2026-05-05 22:00 30.72926 129.74112 39083 ft 587 kts 50°
2026-05-05 22:00 30.77902 129.81622 39090 ft 586 kts 50°
2026-05-05 22:01 30.82865 129.89128 39094 ft 585 kts 49°
2026-05-05 22:01 30.87420 129.96977 39098 ft 586 kts 55°
2026-05-05 22:02 30.91037 130.03643 39101 ft 586 kts 56°
2026-05-05 22:02 30.95304 130.11726 39099 ft 585 kts 57°
2026-05-05 22:03 30.99552 130.19816 39102 ft 585 kts 57°
2026-05-05 22:03 31.03810 130.27897 39111 ft 585 kts 57°
2026-05-05 22:04 31.08057 130.35999 39110 ft 586 kts 57°
2026-05-05 22:04 31.12308 130.44110 39113 ft 586 kts 57°
2026-05-05 22:05 31.16587 130.52221 39107 ft 586 kts 57°
2026-05-05 22:05 31.20861 130.60334 39111 ft 587 kts 57°
2026-05-05 22:06 31.25119 130.68473 39127 ft 587 kts 57°
2026-05-05 22:06 31.29385 130.76622 39124 ft 588 kts 57°
2026-05-05 22:07 31.33645 130.84780 39125 ft 588 kts 57°
2026-05-05 22:07 31.37873 130.92920 39130 ft 589 kts 57°
2026-05-05 22:08 31.42117 131.01146 39136 ft 589 kts 57°
2026-05-05 22:08 31.46357 131.09359 39139 ft 590 kts 57°
2026-05-05 22:09 31.50606 131.17586 39142 ft 590 kts 57°
2026-05-05 22:09 31.54851 131.25817 39150 ft 590 kts 57°
2026-05-05 22:10 31.59082 131.34064 39142 ft 590 kts 57°
2026-05-05 22:10 31.63307 131.42312 39151 ft 590 kts 57°
2026-05-05 22:11 31.67532 131.50566 39150 ft 590 kts 57°
2026-05-05 22:11 31.71751 131.58824 39151 ft 590 kts 57°
2026-05-05 22:12 31.75967 131.67095 39152 ft 590 kts 57°
2026-05-05 22:12 31.80178 131.75376 39150 ft 590 kts 57°
2026-05-05 22:13 31.84402 131.83653 39152 ft 590 kts 56°
2026-05-05 22:13 31.88620 131.91943 39152 ft 591 kts 57°
2026-05-05 22:14 31.92814 132.00260 39152 ft 591 kts 57°
2026-05-05 22:14 31.97002 132.08600 39152 ft 592 kts 57°
2026-05-05 22:15 32.01161 132.16887 39156 ft 592 kts 57°
2026-05-05 22:15 32.05354 132.25239 39156 ft 592 kts 57°
2026-05-05 22:16 32.09539 132.33591 39158 ft 591 kts 57°
2026-05-05 22:16 32.14495 132.41181 39164 ft 578 kts 36°
2026-05-05 22:17 32.20571 132.47339 39160 ft 574 kts 33°
2026-05-05 22:17 32.26805 132.53221 39164 ft 573 kts 32°
2026-05-05 22:18 32.33056 132.59067 39159 ft 573 kts 32°
2026-05-05 22:18 32.39275 132.64937 39157 ft 572 kts 32°
2026-05-05 22:19 32.45484 132.70837 39162 ft 571 kts 32°
2026-05-05 22:19 32.51675 132.76731 39163 ft 571 kts 32°
2026-05-05 22:20 32.57864 132.82640 39132 ft 569 kts 32°
2026-05-05 22:20 32.60929 132.85574 38611 ft 567 kts 32°
2026-05-05 22:20 32.64010 132.88520 37717 ft 571 kts 33°
2026-05-05 22:20 32.67118 132.91489 36772 ft 577 kts 33°
2026-05-05 22:21 32.70261 132.94494 35820 ft 583 kts 33°
2026-05-05 22:21 32.73426 132.97551 34918 ft 590 kts 35°
2026-05-05 22:21 32.76305 133.01094 34035 ft 601 kts 50°
2026-05-05 22:21 32.78863 133.05020 33205 ft 601 kts 52°
2026-05-05 22:22 32.81320 133.09021 32672 ft 596 kts 54°
2026-05-05 22:22 32.83695 133.13027 32184 ft 590 kts 54°
2026-05-05 22:22 32.86023 133.17015 31701 ft 585 kts 55°
2026-05-05 22:22 32.88330 133.20978 31228 ft 580 kts 54°
2026-05-05 22:23 32.90622 133.24904 30768 ft 575 kts 54°
2026-05-05 22:23 32.92899 133.28786 30290 ft 570 kts 54°
2026-05-05 22:23 32.95162 133.32632 29813 ft 564 kts 54°
2026-05-05 22:23 32.97405 133.36439 29287 ft 559 kts 54°
2026-05-05 22:24 32.99604 133.40170 28762 ft 555 kts 54°
2026-05-05 22:24 33.01812 133.43918 28242 ft 551 kts 54°
2026-05-05 22:24 33.04002 133.47639 27723 ft 547 kts 54°
2026-05-05 22:24 33.06178 133.51338 27229 ft 542 kts 53°
2026-05-05 22:25 33.08332 133.54999 26765 ft 537 kts 53°
2026-05-05 22:25 33.10470 133.58636 26280 ft 530 kts 53°
2026-05-05 22:25 33.12552 133.62177 25567 ft 513 kts 53°
2026-05-05 22:25 33.14553 133.65588 25112 ft 491 kts 53°
2026-05-05 22:26 33.16470 133.68867 24706 ft 472 kts 53°
2026-05-05 22:26 33.18332 133.72052 24317 ft 465 kts 53°
2026-05-05 22:26 33.20176 133.75206 23928 ft 462 kts 52°
2026-05-05 22:26 33.22009 133.78343 23489 ft 459 kts 52°
2026-05-05 22:27 33.23831 133.81461 23070 ft 454 kts 52°
2026-05-05 22:27 33.25624 133.84535 22689 ft 449 kts 52°
2026-05-05 22:27 33.27403 133.87591 22311 ft 444 kts 53°
2026-05-05 22:27 33.29158 133.90610 21935 ft 440 kts 53°
2026-05-05 22:28 33.30892 133.93596 21546 ft 435 kts 53°
2026-05-05 22:28 33.32606 133.96556 21179 ft 430 kts 53°
2026-05-05 22:28 33.34297 133.99472 20816 ft 425 kts 53°
2026-05-05 22:28 33.35973 134.02357 20450 ft 420 kts 53°
2026-05-05 22:29 33.37627 134.05207 20092 ft 415 kts 54°
2026-05-05 22:29 33.39240 134.07988 19727 ft 409 kts 54°
2026-05-05 22:29 33.40854 134.10768 19374 ft 404 kts 54°
2026-05-05 22:29 33.42445 134.13517 19021 ft 400 kts 54°
2026-05-05 22:30 33.44022 134.16247 18661 ft 396 kts 55°
2026-05-05 22:30 33.45572 134.18934 18289 ft 391 kts 55°
2026-05-05 22:30 33.47110 134.21603 17925 ft 387 kts 55°
2026-05-05 22:30 33.48633 134.24250 17580 ft 384 kts 55°
2026-05-05 22:31 33.50141 134.26868 17246 ft 380 kts 55°
2026-05-05 22:31 33.51636 134.29468 16885 ft 377 kts 55°
2026-05-05 22:31 33.53118 134.32043 16570 ft 373 kts 55°
2026-05-05 22:31 33.54585 134.34594 16234 ft 370 kts 55°
2026-05-05 22:32 33.56037 134.37120 15900 ft 366 kts 55°
2026-05-05 22:32 33.57472 134.39618 15571 ft 362 kts 55°
2026-05-05 22:32 33.58897 134.42097 15241 ft 359 kts 55°
2026-05-05 22:32 33.60338 134.44515 14914 ft 355 kts 51°
2026-05-05 22:33 33.62151 134.46482 14596 ft 350 kts 30°
2026-05-05 22:33 33.64323 134.47734 14288 ft 345 kts 20°
2026-05-05 22:33 33.66550 134.48780 13946 ft 342 kts 20°
2026-05-05 22:33 33.68759 134.49808 13615 ft 340 kts 20°
2026-05-05 22:34 33.70955 134.50839 13305 ft 337 kts 20°
2026-05-05 22:34 33.73123 134.51866 12837 ft 334 kts 20°
2026-05-05 22:34 33.75281 134.52892 12474 ft 332 kts 20°
2026-05-05 22:34 33.77428 134.53916 12156 ft 331 kts 20°
2026-05-05 22:35 33.79562 134.54934 11844 ft 330 kts 21°
2026-05-05 22:35 33.81688 134.55950 11531 ft 328 kts 21°
2026-05-05 22:35 33.83801 134.56964 11227 ft 326 kts 21°
2026-05-05 22:35 33.85866 134.57958 11054 ft 309 kts 21°
2026-05-05 22:36 33.87795 134.58888 10945 ft 291 kts 21°
2026-05-05 22:36 33.89649 134.59782 10828 ft 284 kts 21°
2026-05-05 22:36 33.91483 134.60665 10609 ft 284 kts 21°
2026-05-05 22:36 33.93314 134.61545 10337 ft 282 kts 21°
2026-05-05 22:37 33.95133 134.62420 10086 ft 281 kts 21°
2026-05-05 22:37 33.96919 134.63280 9920 ft 271 kts 21°
2026-05-05 22:37 33.98638 134.64110 9793 ft 261 kts 21°
2026-05-05 22:37 34.00294 134.64909 9657 ft 252 kts 21°
2026-05-05 22:38 34.01886 134.65677 9525 ft 243 kts 21°
2026-05-05 22:38 34.03441 134.66427 9281 ft 239 kts 21°
2026-05-05 22:38 34.04980 134.67170 9043 ft 238 kts 21°
2026-05-05 22:38 34.06503 134.67950 8890 ft 239 kts 27°
2026-05-05 22:39 34.07790 134.69201 8874 ft 238 kts 53°
2026-05-05 22:39 34.08726 134.70824 8810 ft 233 kts 59°
2026-05-05 22:39 34.09397 134.72507 8757 ft 217 kts 69°
2026-05-05 22:39 34.10012 134.74132 8474 ft 210 kts 65°
2026-05-05 22:40 34.10720 134.75668 8062 ft 210 kts 59°
2026-05-05 22:40 34.11534 134.77147 7780 ft 212 kts 59°
2026-05-05 22:40 34.12253 134.78698 7573 ft 211 kts 66°
2026-05-05 22:40 34.12913 134.80282 7368 ft 211 kts 64°
2026-05-05 22:41 34.13681 134.81719 7222 ft 198 kts 52°
2026-05-05 22:41 34.14575 134.82952 7079 ft 194 kts 49°
2026-05-05 22:41 34.15517 134.84228 6987 ft 212 kts 50°
2026-05-05 22:41 34.16498 134.85601 6922 ft 220 kts 51°
2026-05-05 22:42 34.17482 134.87011 6505 ft 222 kts 51°
2026-05-05 22:42 34.18502 134.88495 6176 ft 234 kts 52°
2026-05-05 22:42 34.19542 134.90020 5920 ft 234 kts 52°
2026-05-05 22:42 34.20601 134.91577 5755 ft 245 kts 52°
2026-05-05 22:43 34.21691 134.93183 5705 ft 247 kts 52°
2026-05-05 22:43 34.22748 134.94810 5638 ft 244 kts 54°
2026-05-05 22:43 34.23823 134.96392 5400 ft 244 kts 51°
2026-05-05 22:43 34.24900 134.97972 5207 ft 244 kts 52°
2026-05-05 22:44 34.25971 134.99556 5101 ft 243 kts 52°
2026-05-05 22:44 34.27033 135.01128 4884 ft 241 kts 52°
2026-05-05 22:44 34.28102 135.02713 4387 ft 246 kts 52°
2026-05-05 22:44 34.29198 135.04338 3884 ft 251 kts 53°
2026-05-05 22:45 34.30306 135.05975 3523 ft 251 kts 53°
2026-05-05 22:45 34.31405 135.07605 3197 ft 247 kts 53°
2026-05-05 22:45 34.32479 135.09197 2877 ft 242 kts 53°
2026-05-05 22:45 34.33537 135.10764 2551 ft 237 kts 53°
2026-05-05 22:46 34.34555 135.12277 2271 ft 233 kts 53°
2026-05-05 22:46 34.35564 135.13772 1948 ft 226 kts 53°
2026-05-05 22:46 34.36552 135.15238 1639 ft 224 kts 52°
2026-05-05 22:46 34.37533 135.16696 1337 ft 223 kts 52°
2026-05-05 22:47 34.38510 135.18143 1039 ft 221 kts 52°
2026-05-05 22:47 34.39465 135.19562 743 ft 211 kts 51°
2026-05-05 22:47 34.40076 135.20469 568 ft 200 kts 51°
2026-05-05 22:47 34.40911 135.21709 457 ft 170 kts 51°
2026-05-05 22:48 34.41642 135.22778 196 ft 168 kts 51°
2026-05-05 22:48 34.42357 135.23856 22 ft 152 kts 51°
2026-05-05 22:48 34.42919 135.24687 30 ft 95 kts 45°
2026-05-05 22:48 34.43188 135.24874 29 ft 21 kts 25°
2026-05-05 22:49 34.43303 135.24931 29 ft 13 kts 13°
2026-05-05 22:49 34.43375 135.24888 29 ft 11 kts 320°
2026-05-05 22:49 34.43414 135.24853 26 ft 7 kts 327°
2026-05-05 22:49 34.43456 135.24830 26 ft 4 kts
2026-05-05 22:50 34.43483 135.24824 26 ft 5 kts 328°
2026-05-05 22:50 34.43519 135.24795 27 ft 7 kts 324°
2026-05-05 22:50 34.43526 135.24788 27 ft 2 kts 323°
2026-05-05 22:50 34.43534 135.24781 27 ft 0 kts 322°
2026-05-05 22:51 34.43536 135.24779 27 ft 0 kts 322°